Year,Month,Day,Hour,Minute,Value (Times are PST for temperature in C)
2015,05,25,00,00,12.70
2015,05,25,00,01,12.70
2015,05,25,00,02,12.70
2015,05,25,00,03,12.70
2015,05,25,00,04,12.70
2015,05,25,00,05,12.70
2015,05,25,00,06,12.70
2015,05,25,00,07,12.70
2015,05,25,00,08,12.70
2015,05,25,00,09,12.70
2015,05,25,00,10,12.70
2015,05,25,00,11,12.70
2015,05,25,00,12,12.60
2015,05,25,00,13,12.60
2015,05,25,00,14,12.60
2015,05,25,00,15,12.60
2015,05,25,00,16,12.60
2015,05,25,00,17,12.50
2015,05,25,00,18,12.50
2015,05,25,00,19,12.50
2015,05,25,00,20,12.40
2015,05,25,00,21,12.40
2015,05,25,00,22,12.40
2015,05,25,00,23,12.40
2015,05,25,00,24,12.40
2015,05,25,00,25,12.40
2015,05,25,00,26,12.40
2015,05,25,00,27,12.40
2015,05,25,00,28,12.40
2015,05,25,00,29,12.30
2015,05,25,00,30,12.30
2015,05,25,00,31,12.30
2015,05,25,00,32,12.30
2015,05,25,00,33,12.30
2015,05,25,00,34,12.30
2015,05,25,00,35,12.30
2015,05,25,00,36,12.30
2015,05,25,00,37,12.30
2015,05,25,00,38,12.20
2015,05,25,00,39,12.20
2015,05,25,00,40,12.20
2015,05,25,00,41,12.20
2015,05,25,00,42,12.20
2015,05,25,00,43,12.20
2015,05,25,00,44,12.20
2015,05,25,00,45,12.20
2015,05,25,00,46,12.20
2015,05,25,00,47,12.20
2015,05,25,00,48,12.20
2015,05,25,00,49,12.30
2015,05,25,00,50,12.30
2015,05,25,00,51,12.30
2015,05,25,00,52,12.30
2015,05,25,00,53,12.30
2015,05,25,00,54,12.30
2015,05,25,00,55,12.30
2015,05,25,00,56,12.30
2015,05,25,00,57,12.30
2015,05,25,00,58,12.30
2015,05,25,00,59,12.30
2015,05,25,01,00,12.30
2015,05,25,01,01,12.30
2015,05,25,01,02,12.30
2015,05,25,01,03,12.20
2015,05,25,01,04,12.20
2015,05,25,01,05,12.20
2015,05,25,01,06,12.20
2015,05,25,01,07,12.20
2015,05,25,01,08,12.20
2015,05,25,01,09,12.20
2015,05,25,01,10,12.20
2015,05,25,01,11,12.20
2015,05,25,01,12,12.20
2015,05,25,01,13,12.20
2015,05,25,01,14,12.10
2015,05,25,01,15,12.10
2015,05,25,01,16,12.10
2015,05,25,01,17,12.10
2015,05,25,01,18,12.10
2015,05,25,01,19,12.10
2015,05,25,01,20,12.10
2015,05,25,01,21,12.10
2015,05,25,01,22,12.10
2015,05,25,01,23,12.00
2015,05,25,01,24,12.00
2015,05,25,01,25,12.00
2015,05,25,01,26,12.00
2015,05,25,01,27,12.00
2015,05,25,01,28,11.90
2015,05,25,01,29,11.90
2015,05,25,01,30,11.90
2015,05,25,01,31,11.90
2015,05,25,01,32,11.90
2015,05,25,01,33,11.90
2015,05,25,01,34,11.80
2015,05,25,01,35,11.80
2015,05,25,01,36,11.80
2015,05,25,01,37,11.80
2015,05,25,01,38,11.80
2015,05,25,01,39,11.80
2015,05,25,01,40,11.80
2015,05,25,01,41,11.80
2015,05,25,01,42,11.80
2015,05,25,01,43,11.80
2015,05,25,01,44,11.80
2015,05,25,01,45,11.70
2015,05,25,01,46,11.70
2015,05,25,01,47,11.70
2015,05,25,01,48,11.70
2015,05,25,01,49,11.70
2015,05,25,01,50,11.70
2015,05,25,01,51,11.70
2015,05,25,01,52,11.60
2015,05,25,01,53,11.60
2015,05,25,01,54,11.60
2015,05,25,01,55,11.60
2015,05,25,01,56,11.60
2015,05,25,01,57,11.50
2015,05,25,01,58,11.50
2015,05,25,01,59,11.40
2015,05,25,02,00,11.40
2015,05,25,02,01,11.30
2015,05,25,02,02,11.20
2015,05,25,02,03,11.20
2015,05,25,02,04,11.20
2015,05,25,02,05,11.20
2015,05,25,02,06,11.10
2015,05,25,02,07,11.10
2015,05,25,02,08,11.10
2015,05,25,02,09,11.10
2015,05,25,02,10,11.10
2015,05,25,02,11,11.10
2015,05,25,02,12,11.10
2015,05,25,02,13,11.10
2015,05,25,02,14,11.00
2015,05,25,02,15,11.00
2015,05,25,02,16,11.00
2015,05,25,02,17,11.00
2015,05,25,02,18,11.00
2015,05,25,02,19,10.90
2015,05,25,02,20,10.90
2015,05,25,02,21,10.90
2015,05,25,02,22,10.90
2015,05,25,02,23,10.80
2015,05,25,02,24,10.80
2015,05,25,02,25,10.80
2015,05,25,02,26,10.70
2015,05,25,02,27,10.70
2015,05,25,02,28,10.70
2015,05,25,02,29,10.70
2015,05,25,02,30,10.60
2015,05,25,02,31,10.60
2015,05,25,02,32,10.60
2015,05,25,02,33,10.50
2015,05,25,02,34,10.50
2015,05,25,02,35,10.50
2015,05,25,02,36,10.40
2015,05,25,02,37,10.40
2015,05,25,02,38,10.40
2015,05,25,02,39,10.40
2015,05,25,02,40,10.30
2015,05,25,02,41,10.30
2015,05,25,02,42,10.30
2015,05,25,02,43,10.30
2015,05,25,02,44,10.20
2015,05,25,02,45,10.20
2015,05,25,02,46,10.20
2015,05,25,02,47,10.20
2015,05,25,02,48,10.10
2015,05,25,02,49,10.10
2015,05,25,02,50,10.10
2015,05,25,02,51,10.10
2015,05,25,02,52,10.10
2015,05,25,02,53,10.00
2015,05,25,02,54,10.00
2015,05,25,02,55,10.00
2015,05,25,02,56,10.00
2015,05,25,02,57,9.90
2015,05,25,02,58,9.90
2015,05,25,02,59,9.90
2015,05,25,03,00,9.90
2015,05,25,03,01,9.90
2015,05,25,03,02,9.80
2015,05,25,03,03,9.80
2015,05,25,03,04,9.80
2015,05,25,03,05,9.80
2015,05,25,03,06,9.80
2015,05,25,03,07,9.80
2015,05,25,03,08,9.80
2015,05,25,03,09,9.80
2015,05,25,03,10,9.70
2015,05,25,03,11,9.70
2015,05,25,03,12,9.70
2015,05,25,03,13,9.70
2015,05,25,03,14,9.70
2015,05,25,03,15,9.70
2015,05,25,03,16,9.70
2015,05,25,03,17,9.60
2015,05,25,03,18,9.60
2015,05,25,03,19,9.60
2015,05,25,03,20,9.60
2015,05,25,03,21,9.60
2015,05,25,03,22,9.60
2015,05,25,03,23,9.60
2015,05,25,03,24,9.60
2015,05,25,03,25,9.60
2015,05,25,03,26,9.60
2015,05,25,03,27,9.50
2015,05,25,03,28,9.50
2015,05,25,03,29,9.50
2015,05,25,03,30,9.50
2015,05,25,03,31,9.40
2015,05,25,03,32,9.40
2015,05,25,03,33,9.40
2015,05,25,03,34,9.40
2015,05,25,03,35,9.40
2015,05,25,03,36,9.40
2015,05,25,03,37,9.40
2015,05,25,03,38,9.40
2015,05,25,03,39,9.40
2015,05,25,03,40,9.40
2015,05,25,03,41,9.40
2015,05,25,03,42,9.50
2015,05,25,03,43,9.50
2015,05,25,03,44,9.60
2015,05,25,03,45,9.60
2015,05,25,03,46,9.60
2015,05,25,03,47,9.60
2015,05,25,03,48,9.60
2015,05,25,03,49,9.60
2015,05,25,03,50,9.60
2015,05,25,03,51,9.60
2015,05,25,03,52,9.60
2015,05,25,03,53,9.60
2015,05,25,03,54,9.60
2015,05,25,03,55,9.60
2015,05,25,03,56,9.50
2015,05,25,03,57,9.50
2015,05,25,03,58,9.50
2015,05,25,03,59,9.50
2015,05,25,04,00,9.50
2015,05,25,04,01,9.40
2015,05,25,04,02,9.40
2015,05,25,04,03,9.40
2015,05,25,05,02,9.20
2015,05,25,05,03,9.20
2015,05,25,05,04,9.20
2015,05,25,05,05,9.20
2015,05,25,05,06,9.20
2015,05,25,05,07,9.20
2015,05,25,05,08,9.20
2015,05,25,05,09,9.20
2015,05,25,05,10,9.20
2015,05,25,05,11,9.20
2015,05,25,05,12,9.20
2015,05,25,05,13,9.20
2015,05,25,05,14,9.20
2015,05,25,05,15,9.20
2015,05,25,05,16,9.30
2015,05,25,05,17,9.30
2015,05,25,05,18,9.30
2015,05,25,05,19,9.30
2015,05,25,05,20,9.30
2015,05,25,05,21,9.30
2015,05,25,05,22,9.30
2015,05,25,05,23,9.30
2015,05,25,05,24,9.40
2015,05,25,05,25,9.40
2015,05,25,05,26,9.40
2015,05,25,05,27,9.40
2015,05,25,05,28,9.40
2015,05,25,05,29,9.40
2015,05,25,05,30,9.40
2015,05,25,05,31,9.40
2015,05,25,05,32,9.40
2015,05,25,05,33,9.40
2015,05,25,05,34,9.40
2015,05,25,05,35,9.40
2015,05,25,05,36,9.40
2015,05,25,05,37,9.50
2015,05,25,05,38,9.50
2015,05,25,05,39,9.50
2015,05,25,05,40,9.50
2015,05,25,05,41,9.50
2015,05,25,05,42,9.50
2015,05,25,05,43,9.50
2015,05,25,05,44,9.60
2015,05,25,05,45,9.60
2015,05,25,05,46,9.60
2015,05,25,05,47,9.60
2015,05,25,05,48,9.60
2015,05,25,05,49,9.60
2015,05,25,05,50,9.60
2015,05,25,05,51,9.60
2015,05,25,05,52,9.70
2015,05,25,05,53,9.70
2015,05,25,05,54,9.70
2015,05,25,05,55,9.70
2015,05,25,05,56,9.70
2015,05,25,05,57,9.70
2015,05,25,05,58,9.80
2015,05,25,05,59,9.80
2015,05,25,06,00,9.80
2015,05,25,06,01,9.80
2015,05,25,06,02,9.80
2015,05,25,06,03,9.80
2015,05,25,06,04,9.80
2015,05,25,06,05,9.80
2015,05,25,06,06,9.80
2015,05,25,06,07,9.80
2015,05,25,06,08,9.80
2015,05,25,06,09,9.80
2015,05,25,06,10,9.80
2015,05,25,06,11,9.80
2015,05,25,06,12,9.80
2015,05,25,06,13,9.80
2015,05,25,06,14,9.80
2015,05,25,06,15,9.80
2015,05,25,06,16,9.80
2015,05,25,06,17,9.80
2015,05,25,06,18,9.80
2015,05,25,06,19,9.80
2015,05,25,06,20,9.80
2015,05,25,06,21,9.80
2015,05,25,06,22,9.80
2015,05,25,06,23,9.80
2015,05,25,06,24,9.80
2015,05,25,06,25,9.80
2015,05,25,06,26,9.80
2015,05,25,06,27,9.80
2015,05,25,06,28,9.90
2015,05,25,06,29,9.90
2015,05,25,06,30,9.90
2015,05,25,06,31,10.00
2015,05,25,06,32,10.00
2015,05,25,06,33,10.00
2015,05,25,06,34,10.00
2015,05,25,06,35,10.10
2015,05,25,06,36,10.10
2015,05,25,06,37,10.10
2015,05,25,06,38,10.10
2015,05,25,06,39,10.10
2015,05,25,06,40,10.10
2015,05,25,06,41,10.10
2015,05,25,06,42,10.10
2015,05,25,06,43,10.10
2015,05,25,06,44,10.10
2015,05,25,06,45,10.10
2015,05,25,06,46,10.10
2015,05,25,06,47,10.20
2015,05,25,06,48,10.20
2015,05,25,06,49,10.20
2015,05,25,06,50,10.30
2015,05,25,06,51,10.30
2015,05,25,06,52,10.30
2015,05,25,06,53,10.30
2015,05,25,06,54,10.30
2015,05,25,06,55,10.30
2015,05,25,06,56,10.40
2015,05,25,06,57,10.40
2015,05,25,06,58,10.40
2015,05,25,06,59,10.40
2015,05,25,07,00,10.40
2015,05,25,07,01,10.50
2015,05,25,07,02,10.50
2015,05,25,07,03,10.50
2015,05,25,07,04,10.60
2015,05,25,07,05,10.60
2015,05,25,07,06,10.60
2015,05,25,07,07,10.60
2015,05,25,07,08,10.60
2015,05,25,07,09,10.70
2015,05,25,07,10,10.70
2015,05,25,07,11,10.70
2015,05,25,07,12,10.70
2015,05,25,07,13,10.70
2015,05,25,07,14,10.80
2015,05,25,07,15,10.80
2015,05,25,07,16,10.80
2015,05,25,07,17,10.80
2015,05,25,07,18,10.80
2015,05,25,07,19,10.80
2015,05,25,07,20,10.90
2015,05,25,07,21,10.90
2015,05,25,07,22,10.90
2015,05,25,07,23,11.00
2015,05,25,07,24,11.00
2015,05,25,07,25,11.10
2015,05,25,07,26,11.10
2015,05,25,07,27,11.10
2015,05,25,07,28,11.20
2015,05,25,07,29,11.20
2015,05,25,07,30,11.20
2015,05,25,07,31,11.30
2015,05,25,07,32,11.30
2015,05,25,07,33,11.40
2015,05,25,07,34,11.40
2015,05,25,07,35,11.50
2015,05,25,07,36,11.50
2015,05,25,07,37,11.60
2015,05,25,07,38,11.60
2015,05,25,07,39,11.70
2015,05,25,07,40,11.70
2015,05,25,07,41,11.70
2015,05,25,07,42,11.80
2015,05,25,07,43,11.80
2015,05,25,07,44,11.80
2015,05,25,07,45,11.80
2015,05,25,07,46,11.80
2015,05,25,07,47,11.80
2015,05,25,07,48,11.80
2015,05,25,07,49,11.90
2015,05,25,07,50,11.90
2015,05,25,07,51,11.90
2015,05,25,07,52,11.90
2015,05,25,07,53,11.90
2015,05,25,07,54,11.90
2015,05,25,07,55,12.00
2015,05,25,07,56,12.00
2015,05,25,07,57,12.00
2015,05,25,07,58,12.10
2015,05,25,07,59,12.10
2015,05,25,08,00,12.10
2015,05,25,08,01,12.10
2015,05,25,08,02,12.10
2015,05,25,08,03,12.20
2015,05,25,08,04,12.20
2015,05,25,08,05,12.20
2015,05,25,08,06,12.20
2015,05,25,08,07,12.30
2015,05,25,08,08,12.30
2015,05,25,08,09,12.30
2015,05,25,08,10,12.40
2015,05,25,08,11,12.40
2015,05,25,08,12,12.40
2015,05,25,08,13,12.50
2015,05,25,08,14,12.50
2015,05,25,08,15,12.60
2015,05,25,08,16,12.70
2015,05,25,08,17,12.70
2015,05,25,08,18,12.70
2015,05,25,08,19,12.80
2015,05,25,08,20,12.80
2015,05,25,08,21,12.80
2015,05,25,08,22,12.80
2015,05,25,08,23,12.80
2015,05,25,08,24,12.80
2015,05,25,08,25,12.80
2015,05,25,08,26,12.80
2015,05,25,08,27,12.80
2015,05,25,08,28,12.80
2015,05,25,08,29,12.80
2015,05,25,08,30,12.90
2015,05,25,08,31,12.90
2015,05,25,08,32,12.90
2015,05,25,08,33,12.90
2015,05,25,08,34,12.90
2015,05,25,08,35,12.90
2015,05,25,08,36,13.00
2015,05,25,08,37,13.00
2015,05,25,08,38,13.00
2015,05,25,08,39,13.00
2015,05,25,08,40,13.10
2015,05,25,08,41,13.10
2015,05,25,08,42,13.10
2015,05,25,08,43,13.10
2015,05,25,08,44,13.20
2015,05,25,08,45,13.20
2015,05,25,08,46,13.20
2015,05,25,08,47,13.30
2015,05,25,08,48,13.30
2015,05,25,08,49,13.40
2015,05,25,08,50,13.40
2015,05,25,08,51,13.50
2015,05,25,08,52,13.50
2015,05,25,08,53,13.60
2015,05,25,08,54,13.60
2015,05,25,08,55,13.60
2015,05,25,08,56,13.70
2015,05,25,08,57,13.70
2015,05,25,08,58,13.70
2015,05,25,08,59,13.70
2015,05,25,09,00,13.70
2015,05,25,09,01,13.70
2015,05,25,09,02,13.70
2015,05,25,09,03,13.70
2015,05,25,09,04,13.80
2015,05,25,09,05,13.80
2015,05,25,09,06,13.90
2015,05,25,09,07,13.90
2015,05,25,09,08,13.90
2015,05,25,09,09,14.00
2015,05,25,09,10,14.10
2015,05,25,09,11,14.10
2015,05,25,09,12,14.20
2015,05,25,09,13,14.20
2015,05,25,09,14,14.20
2015,05,25,09,15,14.30
2015,05,25,09,16,14.30
2015,05,25,09,17,14.40
2015,05,25,09,18,14.40
2015,05,25,09,19,14.40
2015,05,25,09,20,14.40
2015,05,25,09,21,14.40
2015,05,25,09,22,14.40
2015,05,25,09,23,14.40
2015,05,25,09,24,14.40
2015,05,25,09,25,14.40
2015,05,25,09,26,14.40
2015,05,25,09,27,14.30
2015,05,25,09,28,14.30
2015,05,25,09,29,14.20
2015,05,25,09,30,14.10
2015,05,25,09,31,14.00
2015,05,25,09,32,14.00
2015,05,25,09,33,14.00
2015,05,25,09,34,13.90
2015,05,25,09,35,13.90
2015,05,25,09,36,13.90
2015,05,25,09,37,13.90
2015,05,25,09,38,13.90
2015,05,25,09,39,13.80
2015,05,25,09,40,13.80
2015,05,25,09,41,13.70
2015,05,25,09,42,13.70
2015,05,25,09,43,13.60
2015,05,25,09,44,13.60
2015,05,25,09,45,13.60
2015,05,25,09,46,13.60
2015,05,25,09,47,13.60
2015,05,25,09,48,13.70
2015,05,25,09,49,13.80
2015,05,25,09,50,13.80
2015,05,25,09,51,13.90
2015,05,25,09,52,14.00
2015,05,25,09,53,14.00
2015,05,25,09,54,14.00
2015,05,25,09,55,14.10
2015,05,25,09,56,14.10
2015,05,25,09,57,14.10
2015,05,25,09,58,14.10
2015,05,25,09,59,14.10
2015,05,25,10,00,14.20
2015,05,25,10,01,14.20
2015,05,25,10,02,14.20
2015,05,25,10,03,14.20
2015,05,25,10,04,14.20
2015,05,25,10,05,14.30
2015,05,25,10,06,14.30
2015,05,25,10,07,14.30
2015,05,25,10,08,14.30
2015,05,25,10,09,14.40
2015,05,25,10,10,14.40
2015,05,25,10,11,14.50
2015,05,25,10,12,14.50
2015,05,25,10,13,14.50
2015,05,25,10,14,14.50
2015,05,25,10,15,14.50
2015,05,25,10,16,14.40
2015,05,25,10,17,14.50
2015,05,25,10,18,14.60
2015,05,25,10,19,14.70
2015,05,25,10,20,14.70
2015,05,25,10,21,14.70
2015,05,25,10,22,14.70
2015,05,25,10,23,14.70
2015,05,25,10,24,14.70
2015,05,25,10,25,14.60
2015,05,25,10,26,14.70
2015,05,25,10,27,14.70
2015,05,25,10,28,14.70
2015,05,25,10,29,14.80
2015,05,25,10,30,14.70
2015,05,25,10,31,14.70
2015,05,25,10,32,14.80
2015,05,25,10,33,14.80
2015,05,25,10,34,14.90
2015,05,25,10,35,14.90
2015,05,25,10,36,15.00
2015,05,25,10,37,15.00
2015,05,25,10,38,15.10
2015,05,25,10,39,15.20
2015,05,25,10,40,15.20
2015,05,25,10,41,15.30
2015,05,25,10,42,15.30
2015,05,25,10,43,15.40
2015,05,25,10,44,15.50
2015,05,25,10,45,15.60
2015,05,25,10,46,15.60
2015,05,25,10,47,15.60
2015,05,25,10,48,15.50
2015,05,25,10,49,15.50
2015,05,25,10,50,15.50
2015,05,25,10,51,15.40
2015,05,25,10,52,15.40
2015,05,25,10,53,15.30
2015,05,25,10,54,15.40
2015,05,25,10,55,15.40
2015,05,25,10,56,15.50
2015,05,25,10,57,15.50
2015,05,25,10,58,15.40
2015,05,25,10,59,15.40
2015,05,25,11,00,15.40
2015,05,25,11,01,15.40
2015,05,25,11,02,15.40
2015,05,25,11,03,15.40
2015,05,25,11,04,15.30
2015,05,25,11,05,15.30
2015,05,25,11,06,15.30
2015,05,25,11,07,15.30
2015,05,25,11,08,15.20
2015,05,25,11,09,15.30
2015,05,25,11,10,15.30
2015,05,25,11,11,15.30
2015,05,25,11,12,15.20
2015,05,25,11,13,15.10
2015,05,25,11,14,15.10
2015,05,25,11,15,15.10
2015,05,25,11,16,15.10
2015,05,25,11,17,15.10
2015,05,25,11,18,15.10
2015,05,25,11,19,15.00
2015,05,25,11,20,15.00
2015,05,25,11,21,15.00
2015,05,25,11,22,15.00
2015,05,25,11,23,15.10
2015,05,25,11,24,15.10
2015,05,25,11,25,15.10
2015,05,25,11,26,15.10
2015,05,25,11,27,15.10
2015,05,25,11,28,15.10
2015,05,25,11,29,15.20
2015,05,25,11,30,15.20
2015,05,25,11,31,15.30
2015,05,25,11,32,15.30
2015,05,25,11,33,15.30
2015,05,25,11,34,15.40
2015,05,25,11,35,15.40
2015,05,25,11,36,15.40
2015,05,25,11,37,15.40
2015,05,25,11,38,15.40
2015,05,25,11,39,15.30
2015,05,25,11,40,15.30
2015,05,25,11,41,15.30
2015,05,25,11,42,15.20
2015,05,25,11,43,15.30
2015,05,25,11,44,15.30
2015,05,25,11,45,15.30
2015,05,25,11,46,15.40
2015,05,25,11,47,15.40
2015,05,25,11,48,15.40
2015,05,25,11,49,15.50
2015,05,25,11,50,15.50
2015,05,25,11,51,15.60
2015,05,25,11,52,15.60
2015,05,25,11,53,15.70
2015,05,25,11,54,15.70
2015,05,25,11,55,15.70
2015,05,25,11,56,15.70
2015,05,25,11,57,15.70
2015,05,25,11,58,15.70
2015,05,25,11,59,15.70
2015,05,25,12,00,15.70
2015,05,25,12,01,15.70
2015,05,25,12,02,15.70
2015,05,25,12,03,15.70
2015,05,25,12,04,15.70
2015,05,25,12,05,15.70
2015,05,25,12,06,15.70
2015,05,25,12,07,15.80
2015,05,25,12,08,15.80
2015,05,25,12,09,15.80
2015,05,25,12,10,15.80
2015,05,25,12,11,15.80
2015,05,25,12,12,15.80
2015,05,25,12,13,15.80
2015,05,25,12,14,15.90
2015,05,25,12,15,15.90
2015,05,25,12,16,15.90
2015,05,25,12,17,15.90
2015,05,25,12,18,15.90
2015,05,25,12,19,16.00
2015,05,25,12,20,16.00
2015,05,25,12,21,16.00
2015,05,25,12,22,16.10
2015,05,25,12,23,16.10
2015,05,25,12,24,16.10
2015,05,25,12,25,16.20
2015,05,25,12,26,16.20
2015,05,25,12,27,16.30
2015,05,25,12,28,16.30
2015,05,25,12,29,16.30
2015,05,25,12,30,16.40
2015,05,25,12,31,16.40
2015,05,25,12,32,16.50
2015,05,25,12,33,16.50
2015,05,25,12,34,16.60
2015,05,25,12,35,16.60
2015,05,25,12,36,16.60
2015,05,25,12,37,16.60
2015,05,25,12,38,16.60
2015,05,25,12,39,16.60
2015,05,25,12,40,16.60
2015,05,25,12,41,16.70
2015,05,25,12,42,16.80
2015,05,25,12,43,16.90
2015,05,25,12,44,17.00
2015,05,25,12,45,17.10
2015,05,25,12,46,17.20
2015,05,25,12,47,17.30
2015,05,25,12,48,17.30
2015,05,25,12,49,17.20
2015,05,25,12,50,17.10
2015,05,25,12,51,17.00
2015,05,25,12,52,17.00
2015,05,25,12,53,17.10
2015,05,25,12,54,17.30
2015,05,25,12,55,17.30
2015,05,25,12,56,17.40
2015,05,25,12,57,17.40
2015,05,25,12,58,17.40
2015,05,25,12,59,17.30
2015,05,25,13,00,17.30
2015,05,25,13,01,17.30
2015,05,25,13,02,17.30
2015,05,25,13,03,17.30
2015,05,25,13,04,17.40
2015,05,25,13,05,17.40
2015,05,25,13,06,17.50
2015,05,25,13,07,17.50
2015,05,25,13,08,17.50
2015,05,25,13,09,17.60
2015,05,25,13,10,17.60
2015,05,25,13,11,17.60
2015,05,25,13,12,17.70
2015,05,25,13,13,17.70
2015,05,25,13,14,17.70
2015,05,25,13,15,17.70
2015,05,25,13,16,17.60
2015,05,25,13,17,17.50
2015,05,25,13,18,17.40
2015,05,25,13,19,17.40
2015,05,25,13,20,17.40
2015,05,25,13,21,17.30
2015,05,25,13,22,17.30
2015,05,25,13,23,17.20
2015,05,25,13,24,17.20
2015,05,25,13,25,17.10
2015,05,25,13,26,17.10
2015,05,25,13,27,17.10
2015,05,25,13,28,17.10
2015,05,25,13,29,17.10
2015,05,25,13,30,17.10
2015,05,25,13,31,17.10
2015,05,25,13,32,17.10
2015,05,25,13,33,17.20
2015,05,25,13,34,17.30
2015,05,25,13,35,17.40
2015,05,25,13,36,17.40
2015,05,25,13,37,17.40
2015,05,25,13,38,17.40
2015,05,25,13,39,17.40
2015,05,25,13,40,17.50
2015,05,25,13,41,17.50
2015,05,25,13,42,17.50
2015,05,25,13,43,17.50
2015,05,25,13,44,17.60
2015,05,25,13,45,17.60
2015,05,25,13,46,17.70
2015,05,25,13,47,17.70
2015,05,25,13,48,17.80
2015,05,25,13,49,17.90
2015,05,25,13,50,18.00
2015,05,25,13,51,18.10
2015,05,25,13,52,18.20
2015,05,25,13,53,18.30
2015,05,25,13,54,18.30
2015,05,25,13,55,18.30
2015,05,25,13,56,18.40
2015,05,25,13,57,18.50
2015,05,25,13,58,18.60
2015,05,25,13,59,18.60
2015,05,25,14,00,18.70
2015,05,25,14,01,18.70
2015,05,25,14,02,18.80
2015,05,25,14,03,18.80
2015,05,25,14,04,18.80
2015,05,25,14,05,18.80
2015,05,25,14,06,18.70
2015,05,25,14,07,18.60
2015,05,25,14,08,18.50
2015,05,25,14,09,18.40
2015,05,25,14,10,18.40
2015,05,25,14,11,18.40
2015,05,25,14,12,18.40
2015,05,25,14,13,18.50
2015,05,25,14,14,18.60
2015,05,25,14,15,18.60
2015,05,25,14,16,18.60
2015,05,25,14,17,18.60
2015,05,25,14,18,18.50
2015,05,25,14,19,18.50
2015,05,25,14,20,18.50
2015,05,25,14,21,18.50
2015,05,25,14,22,18.60
2015,05,25,14,23,18.60
2015,05,25,14,24,18.70
2015,05,25,14,25,18.70
2015,05,25,14,26,18.80
2015,05,25,14,27,18.90
2015,05,25,14,28,19.00
2015,05,25,14,29,19.20
2015,05,25,14,30,19.20
2015,05,25,14,31,19.20
2015,05,25,14,32,19.20
2015,05,25,14,33,19.20
2015,05,25,14,34,19.20
2015,05,25,14,35,19.10
2015,05,25,14,36,19.00
2015,05,25,14,37,19.00
2015,05,25,14,38,18.90
2015,05,25,14,39,18.80
2015,05,25,14,40,18.70
2015,05,25,14,41,18.50
2015,05,25,14,42,18.30
2015,05,25,14,43,18.30
2015,05,25,14,44,18.30
2015,05,25,14,45,18.20
2015,05,25,14,46,18.20
2015,05,25,14,47,18.20
2015,05,25,14,48,18.30
2015,05,25,14,49,18.30
2015,05,25,14,50,18.30
2015,05,25,14,51,18.30
2015,05,25,14,52,18.40
2015,05,25,14,53,18.30
2015,05,25,14,54,18.30
2015,05,25,14,55,18.20
2015,05,25,14,56,18.10
2015,05,25,14,57,18.10
2015,05,25,14,58,18.00
2015,05,25,14,59,18.00
2015,05,25,15,00,18.00
2015,05,25,15,01,18.00
2015,05,25,15,02,18.00
2015,05,25,15,03,18.00
2015,05,25,15,04,18.10
2015,05,25,15,05,18.20
2015,05,25,15,06,18.20
2015,05,25,15,07,18.30
2015,05,25,15,08,18.40
2015,05,25,15,09,18.50
2015,05,25,15,10,18.50
2015,05,25,15,11,18.60
2015,05,25,15,12,18.60
2015,05,25,15,13,18.60
2015,05,25,15,14,18.70
2015,05,25,15,15,18.80
2015,05,25,15,16,18.90
2015,05,25,15,17,18.90
2015,05,25,15,18,19.00
2015,05,25,15,19,19.00
2015,05,25,15,20,19.00
2015,05,25,15,21,19.10
2015,05,25,15,22,19.10
2015,05,25,15,23,19.20
2015,05,25,15,24,19.20
2015,05,25,15,25,19.20
2015,05,25,15,26,19.30
2015,05,25,15,27,19.30
2015,05,25,15,28,19.30
2015,05,25,15,29,19.30
2015,05,25,15,30,19.20
2015,05,25,15,31,19.20
2015,05,25,15,32,19.20
2015,05,25,15,33,19.30
2015,05,25,15,34,19.30
2015,05,25,15,35,19.30
2015,05,25,15,36,19.30
2015,05,25,15,37,19.30
2015,05,25,15,38,19.30
2015,05,25,15,39,19.30
2015,05,25,15,40,19.30
2015,05,25,15,41,19.30
2015,05,25,15,42,19.30
2015,05,25,15,43,19.30
2015,05,25,15,44,19.20
2015,05,25,15,45,19.20
2015,05,25,15,46,19.20
2015,05,25,15,47,19.10
2015,05,25,15,48,19.10
2015,05,25,15,49,19.10
2015,05,25,15,50,19.10
2015,05,25,15,51,19.10
2015,05,25,15,52,19.10
2015,05,25,15,53,19.20
2015,05,25,15,54,19.10
2015,05,25,15,55,19.10
2015,05,25,15,56,19.10
2015,05,25,15,57,19.00
2015,05,25,15,58,18.90
2015,05,25,15,59,18.90
2015,05,25,16,00,18.90
2015,05,25,16,01,19.00
2015,05,25,16,02,19.00
2015,05,25,16,03,19.00
2015,05,25,16,04,18.90
2015,05,25,16,05,18.90
2015,05,25,16,06,19.00
2015,05,25,16,07,19.00
2015,05,25,16,08,19.00
2015,05,25,16,09,19.00
2015,05,25,16,10,19.00
2015,05,25,16,11,19.10
2015,05,25,16,12,19.10
2015,05,25,16,13,19.00
2015,05,25,16,14,19.00
2015,05,25,16,15,19.00
2015,05,25,16,16,18.90
2015,05,25,16,17,18.90
2015,05,25,16,18,19.00
2015,05,25,16,19,19.10
2015,05,25,16,20,19.10
2015,05,25,16,21,19.10
2015,05,25,16,22,19.10
2015,05,25,16,23,19.10
2015,05,25,16,24,19.10
2015,05,25,16,25,19.20
2015,05,25,16,26,19.30
2015,05,25,16,27,19.30
2015,05,25,16,28,19.40
2015,05,25,16,29,19.40
2015,05,25,16,30,19.40
2015,05,25,16,31,19.40
2015,05,25,16,32,19.40
2015,05,25,16,33,19.40
2015,05,25,16,34,19.40
2015,05,25,16,35,19.30
2015,05,25,16,36,19.20
2015,05,25,16,37,19.10
2015,05,25,16,38,19.00
2015,05,25,16,39,18.90
2015,05,25,16,40,18.90
2015,05,25,16,41,18.80
2015,05,25,16,42,18.80
2015,05,25,16,43,18.80
2015,05,25,16,44,18.70
2015,05,25,16,45,18.70
2015,05,25,16,46,18.70
2015,05,25,16,47,18.60
2015,05,25,16,48,18.60
2015,05,25,16,49,18.60
2015,05,25,16,50,18.50
2015,05,25,16,51,18.50
2015,05,25,16,52,18.40
2015,05,25,16,53,18.40
2015,05,25,16,54,18.30
2015,05,25,16,55,18.30
2015,05,25,16,56,18.30
2015,05,25,16,57,18.30
2015,05,25,16,58,18.30
2015,05,25,16,59,18.40
2015,05,25,17,00,18.50
2015,05,25,17,01,18.50
2015,05,25,17,02,18.50
2015,05,25,17,03,18.60
2015,05,25,17,04,18.60
2015,05,25,17,05,18.60
2015,05,25,17,06,18.60
2015,05,25,17,07,18.60
2015,05,25,17,08,18.50
2015,05,25,17,09,18.50
2015,05,25,17,10,18.50
2015,05,25,17,11,18.60
2015,05,25,17,12,18.60
2015,05,25,17,13,18.60
2015,05,25,17,14,18.60
2015,05,25,17,15,18.60
2015,05,25,17,16,18.60
2015,05,25,17,17,18.60
2015,05,25,17,18,18.60
2015,05,25,17,19,18.60
2015,05,25,17,20,18.50
2015,05,25,17,21,18.50
2015,05,25,17,22,18.50
2015,05,25,17,23,18.40
2015,05,25,17,24,18.40
2015,05,25,17,25,18.40
2015,05,25,17,26,18.40
2015,05,25,17,27,18.30
2015,05,25,17,28,18.30
2015,05,25,17,29,18.30
2015,05,25,17,30,18.20
2015,05,25,17,31,18.20
2015,05,25,17,32,18.20
2015,05,25,17,33,18.20
2015,05,25,17,34,18.20
2015,05,25,17,35,18.30
2015,05,25,17,36,18.30
2015,05,25,17,37,18.30
2015,05,25,17,38,18.30
2015,05,25,17,39,18.30
2015,05,25,17,40,18.30
2015,05,25,17,41,18.30
2015,05,25,17,42,18.30
2015,05,25,17,43,18.30
2015,05,25,17,44,18.30
2015,05,25,17,45,18.30
2015,05,25,17,46,18.30
2015,05,25,17,47,18.30
2015,05,25,17,48,18.30
2015,05,25,17,49,18.30
2015,05,25,17,50,18.30
2015,05,25,17,51,18.30
2015,05,25,17,52,18.30
2015,05,25,17,53,18.30
2015,05,25,17,54,18.30
2015,05,25,17,55,18.30
2015,05,25,17,56,18.30
2015,05,25,17,57,18.30
2015,05,25,17,58,18.30
2015,05,25,17,59,18.30
2015,05,25,18,00,18.30
2015,05,25,18,01,18.40
2015,05,25,18,02,18.40
2015,05,25,18,03,18.40
2015,05,25,18,04,18.30
2015,05,25,18,05,18.30
2015,05,25,18,06,18.30
2015,05,25,18,07,18.30
2015,05,25,18,08,18.30
2015,05,25,18,09,18.30
2015,05,25,18,10,18.30
2015,05,25,18,11,18.30
2015,05,25,18,12,18.30
2015,05,25,18,13,18.30
2015,05,25,18,14,18.30
2015,05,25,18,15,18.30
2015,05,25,18,16,18.30
2015,05,25,18,17,18.30
2015,05,25,18,18,18.30
2015,05,25,18,19,18.30
2015,05,25,18,20,18.30
2015,05,25,18,21,18.30
2015,05,25,18,22,18.30
2015,05,25,18,23,18.30
2015,05,25,18,24,18.30